| time (UTC) | temp F | wind direction | speed knots | gust knots | rain 1hr in | rain 24hr in | rain mn in | humidity % | barometer mb |
| 20260505164515 | 56 | 308 | 0.0 | 1.7 | 0.00 | 0.00 | 0.00 | 83 | |
| 20260505163516 | 56 | 279 | 0.0 | 0.9 | 0.00 | 0.00 | 0.00 | 83 | |
| 20260505162516 | 56 | 267 | 0.9 | 2.6 | 0.00 | 0.00 | 0.00 | 82 | |
| 20260505161536 | 56 | 263 | 0.0 | 1.7 | 0.00 | 0.00 | 0.00 | 82 | |
| 20260505160517 | 56 | 268 | 0.9 | 3.5 | 0.00 | 0.00 | 0.00 | 81 | |
| 20260505152515 | 57 | 231 | 2.6 | 11.3 | 0.00 | 0.00 | 0.00 | 82 | |
| 20260505151516 | 56 | 232 | 0.9 | 3.5 | 0.00 | 0.00 | 0.00 | 86 | |
| 20260505150516 | 56 | 274 | 0.0 | 0.9 | 0.00 | 0.00 | 0.00 | 88 | |
| 20260505140515 | 55 | 221 | 0.9 | 3.5 | 0.00 | 0.00 | 0.00 | 90 | |
| 20260505124516 | 60 | 217 | 2.6 | 8.7 | 0.00 | 0.00 | 0.00 | 82 | |
| 20260505123516 | 59 | 197 | 2.6 | 11.3 | 0.00 | 0.00 | 0.00 | 87 | |
| 20260505122517 | 59 | 230 | 1.7 | 7.0 | 0.00 | 0.00 | 0.00 | 85 | |
| 20260505121517 | 59 | 224 | 0.9 | 4.3 | 0.00 | 0.00 | 0.00 | 85 | |
| 20260505120515 | 60 | 230 | 0.9 | 3.5 | 0.00 | 0.00 | 0.00 | 85 | |
| 20260505115515 | 60 | 222 | 1.7 | 6.1 | 0.00 | 0.00 | 0.00 | 85 | |
| 20260505114516 | 59 | 216 | 0.9 | 5.2 | 0.00 | 0.00 | 0.00 | 86 | |
| 20260505113536 | 58 | 0.0 | 0.0 | 0.00 | 0.00 | 0.00 | 90 | ||
| 20260505112517 | 57 | 200 | 0.9 | 4.3 | 0.00 | 0.00 | 0.00 | 90 | |
| 20260505111517 | 57 | 189 | 1.7 | 5.2 | 0.00 | 0.00 | 0.00 | 91 | |
| 20260505110518 | 56 | 178 | 2.6 | 6.1 | 0.00 | 0.00 | 0.00 | 92 | |
| 20260505101517 | 55 | 163 | 0.0 | 1.7 | 0.00 | 0.00 | 0.00 | 94 | |
| 20260505100517 | 54 | 189 | 0.0 | 0.9 | 0.00 | 0.00 | 0.00 | 95 | |
| 20260505095517 | 54 | 0.0 | 0.0 | 0.00 | 0.00 | 0.00 | 95 | ||
| 20260505094515 | 54 | 172 | 0.0 | 1.7 | 0.00 | 0.00 | 0.00 | 95 | |
| 20260505093515 | 54 | 201 | 0.9 | 3.5 | 0.00 | 0.00 | 0.00 | 95 | |
| 20260505092515 | 54 | 0.0 | 0.0 | 0.00 | 0.00 | 0.00 | 96 | ||
| 20260505091516 | 53 | 0.0 | 0.0 | 0.00 | 0.00 | 0.00 | 97 | ||
| 20260505090537 | 53 | 0.0 | 0.0 | 0.00 | 0.00 | 0.00 | 98 | ||
| 20260505085517 | 52 | 129 | 0.0 | 0.9 | 0.00 | 0.00 | 0.00 | 98 | |
| 20260505084517 | 52 | 0.0 | 0.0 | 0.00 | 0.00 | 0.00 | 98 | ||
| 20260505083535 | 52 | 128 | 1.7 | 2.6 | 0.00 | 0.00 | 0.00 | 98 | |
| 20260505082516 | 52 | 140 | 0.9 | 1.7 | 0.00 | 0.00 | 0.00 | 98 | |
| 20260505081516 | 51 | 132 | 0.9 | 3.5 | 0.00 | 0.00 | 0.00 | 98 | |
| 20260505080516 | 51 | 144 | 0.9 | 1.7 | 0.00 | 0.00 | 0.00 | 98 | |
| 20260505075517 | 51 | 135 | 0.9 | 2.6 | 0.00 | 0.00 | 0.00 | 98 | |
| 20260505074517 | 51 | 154 | 0.9 | 1.7 | 0.00 | 0.00 | 0.00 | 98 | |
| 20260505073518 | 51 | 165 | 1.7 | 3.5 | 0.00 | 0.00 | 0.00 | 99 | |
| 20260505072515 | 51 | 183 | 0.9 | 3.5 | 0.00 | 0.00 | 0.00 | 99 | |
| 20260505071515 | 51 | 199 | 0.0 | 1.7 | 0.00 | 0.00 | 0.00 | 99 | |
| 20260505070636 | 50 | 0.0 | 0.0 | 0.00 | 0.00 | 0.00 | 99 | ||
| 20260505065516 | 50 | 0.0 | 0.0 | 0.00 | 0.00 | 0.00 | 99 | ||
| 20260505064517 | 50 | 189 | 0.0 | 0.9 | 0.00 | 0.00 | 0.00 | 99 | |
| 20260505063617 | 50 | 197 | 0.0 | 1.7 | 0.00 | 0.00 | 0.00 | 99 | |
| 20260505062537 | 50 | 0.0 | 0.0 | 0.00 | 0.00 | 0.00 | 98 | ||
| 20260505061536 | 50 | 0.0 | 0.0 | 0.00 | 0.00 | 0.00 | 99 | ||
| 20260505060515 | 50 | 221 | 0.0 | 0.9 | 0.00 | 0.00 | 0.00 | 98 | |
| 20260505055516 | 50 | 180 | 0.9 | 3.5 | 0.00 | 0.00 | 0.00 | 98 | |
| 20260505054536 | 50 | 222 | 0.0 | 0.9 | 0.00 | 0.00 | 0.00 | 98 | |
| 20260505053518 | 49 | 220 | 0.0 | 1.7 | 0.00 | 0.00 | 0.00 | 99 | |
| 20260505052517 | 49 | 223 | 0.0 | 1.7 | 0.00 | 0.00 | 0.00 | 99 | |
| 20260505051517 | 49 | 0.0 | 0.0 | 0.00 | 0.00 | 0.00 | 99 | ||
| 20260505050515 | 49 | 117 | 0.0 | 0.9 | 0.00 | 0.00 | 0.00 | 99 | |
| 20260505041517 | 49 | 0.0 | 0.0 | 0.00 | 0.00 | 0.00 | 98 | ||
| 20260505040517 | 49 | 0.0 | 0.0 | 0.00 | 0.00 | 0.00 | 98 | ||
| 20260505035535 | 48 | 0.0 | 0.0 | 0.00 | 0.00 | 0.00 | 98 | ||
| 20260505034515 | 49 | 0.0 | 0.0 | 0.00 | 0.00 | 0.00 | 98 | ||
| 20260505033516 | 49 | 0.0 | 0.0 | 0.00 | 0.00 | 0.00 | 98 | ||
| 20260505032516 | 49 | 0.0 | 0.0 | 0.00 | 0.00 | 0.00 | 98 | ||
| 20260505031516 | 49 | 0.0 | 0.0 | 0.00 | 0.00 | 0.00 | 97 | ||
| 20260505030516 | 49 | 0.0 | 0.0 | 0.00 | 0.00 | 0.00 | 97 | ||
| 20260505025557 | 49 | 0.0 | 0.0 | 0.00 | 0.00 | 0.00 | 97 | ||
| 20260505024515 | 49 | 0.0 | 0.0 | 0.00 | 0.00 | 0.00 | 97 | ||
| 20260505023515 | 49 | 0.0 | 0.0 | 0.00 | 0.00 | 0.00 | 97 | ||
| 20260505022516 | 49 | 0.0 | 0.0 | 0.00 | 0.00 | 0.00 | 97 | ||
| 20260505021516 | 49 | 342 | 0.0 | 0.9 | 0.00 | 0.00 | 0.00 | 97 | |
| 20260505020516 | 49 | 10 | 0.0 | 0.9 | 0.00 | 0.00 | 0.00 | 96 | |
| 20260505015517 | 49 | 10 | 0.0 | 0.9 | 0.00 | 0.00 | 0.00 | 96 | |
| 20260505014537 | 49 | 14 | 0.0 | 1.7 | 0.00 | 0.00 | 0.00 | 96 | |
| 20260505013515 | 49 | 0.0 | 0.0 | 0.00 | 0.00 | 0.00 | 96 | ||
| 20260505012515 | 49 | 0.0 | 0.0 | 0.00 | 0.00 | 0.00 | 96 | ||
| 20260505011516 | 49 | 0.0 | 0.0 | 0.00 | 0.00 | 0.00 | 96 | ||
| 20260505010516 | 49 | 346 | 0.0 | 0.9 | 0.00 | 0.00 | 0.00 | 96 | |
| 20260505005516 | 49 | 346 | 0.0 | 0.9 | 0.00 | 0.00 | 0.00 | 96 | |
| 20260505004517 | 50 | 347 | 0.0 | 0.9 | 0.00 | 0.00 | 0.00 | 96 | |
| 20260505003518 | 50 | 0.0 | 0.0 | 0.00 | 0.00 | 0.00 | 96 | ||
| 20260505002515 | 50 | 339 | 0.0 | 0.9 | 0.00 | 0.00 | 0.00 | 96 | |
| 20260505001515 | 50 | 0.0 | 0.0 | 0.00 | 0.00 | 0.00 | 96 | ||
| 20260505000516 | 50 | 0.0 | 0.0 | 0.00 | 0.00 | 0.00 | 95 | ||
| 20260504235516 | 50 | 0.0 | 0.0 | 0.00 | 0.00 | 0.00 | 95 | ||
| 20260504234536 | 50 | 123 | 0.9 | 0.9 | 0.00 | 0.00 | 0.00 | 96 | |
| 20260504233517 | 50 | 7 | 0.9 | 1.7 | 0.00 | 0.00 | 0.00 | 96 | |
| 20260504232518 | 50 | 0.0 | 0.0 | 0.00 | 0.00 | 0.00 | 96 | ||
| 20260504231515 | 50 | 0.0 | 0.0 | 0.00 | 0.00 | 0.00 | 96 | ||
| 20260504230515 | 50 | 0.0 | 0.0 | 0.00 | 0.00 | 0.00 | 96 | ||
| 20260504225515 | 50 | 0.0 | 0.0 | 0.00 | 0.00 | 0.00 | 96 | ||
| 20260504224517 | 49 | 17 | 0.0 | 0.9 | 0.00 | 0.00 | 0.00 | 96 | |
| 20260504223517 | 49 | 17 | 0.0 | 0.9 | 0.00 | 0.00 | 0.00 | 96 | |
| 20260504222517 | 49 | 5 | 0.9 | 1.7 | 0.00 | 0.00 | 0.00 | 96 | |
| 20260504221517 | 49 | 12 | 0.9 | 0.9 | 0.00 | 0.00 | 0.00 | 96 | |
| 20260504220516 | 49 | 8 | 1.7 | 2.6 | 0.00 | 0.00 | 0.00 | 96 | |
| 20260504215516 | 49 | 351 | 0.9 | 1.7 | 0.00 | 0.00 | 0.00 | 95 | |
| 20260504214516 | 49 | 18 | 1.7 | 2.6 | 0.00 | 0.00 | 0.00 | 95 | |
| 20260504213516 | 49 | 349 | 0.0 | 0.9 | 0.00 | 0.00 | 0.00 | 96 | |
| 20260504212516 | 49 | 352 | 0.9 | 1.7 | 0.00 | 0.00 | 0.00 | 96 | |
| 20260504211517 | 49 | 343 | 0.9 | 1.7 | 0.00 | 0.00 | 0.00 | 95 | |
| 20260504210557 | 50 | 16 | 1.7 | 2.6 | 0.00 | 0.00 | 0.00 | 95 | |
| 20260504205515 | 50 | 9 | 0.9 | 0.9 | 0.00 | 0.00 | 0.00 | 95 | |
| 20260504204515 | 50 | 355 | 0.9 | 1.7 | 0.00 | 0.00 | 0.00 | 95 | |
| 20260504203515 | 51 | 342 | 0.9 | 0.9 | 0.00 | 0.00 | 0.00 | 95 | |
| 20260504202516 | 51 | 343 | 0.0 | 0.9 | 0.00 | 0.00 | 0.00 | 95 | |
| 20260504201516 | 51 | 0.0 | 0.0 | 0.00 | 0.00 | 0.00 | 95 | ||
| 20260504200517 | 51 | 0.0 | 0.0 | 0.00 | 0.00 | 0.00 | 95 | ||
| 20260504195517 | 51 | 0.0 | 0.0 | 0.00 | 0.00 | 0.00 | 96 | ||
| 20260504194515 | 51 | 0.0 | 0.0 | 0.00 | 0.00 | 0.00 | 95 | ||
| 20260504193515 | 51 | 0.0 | 0.0 | 0.00 | 0.00 | 0.00 | 94 | ||
| 20260504192516 | 52 | 0.0 | 0.0 | 0.00 | 0.00 | 0.00 | 93 | ||
| 20260504191516 | 52 | 0.0 | 0.0 | 0.00 | 0.00 | 0.00 | 93 | ||
| 20260504190516 | 52 | 0.0 | 0.0 | 0.00 | 0.00 | 0.00 | 93 | ||
| 20260504185517 | 52 | 195 | 0.0 | 0.9 | 0.00 | 0.00 | 0.00 | 92 | |
| 20260504184517 | 52 | 200 | 0.9 | 2.6 | 0.00 | 0.00 | 0.00 | 93 | |
| 20260504183514 | 53 | 169 | 1.7 | 4.3 | 0.00 | 0.00 | 0.00 | 93 | |
| 20260504182515 | 53 | 176 | 0.9 | 2.6 | 0.00 | 0.00 | 0.00 | 93 | |
| 20260504181517 | 53 | 213 | 0.0 | 3.5 | 0.00 | 0.00 | 0.00 | 93 | |
| 20260504180556 | 53 | 197 | 0.9 | 3.5 | 0.00 | 0.00 | 0.00 | 93 | |
| 20260504175517 | 53 | 171 | 0.0 | 0.9 | 0.00 | 0.00 | 0.00 | 94 | |
| 20260504174517 | 53 | 147 | 0.9 | 3.5 | 0.00 | 0.00 | 0.00 | 94 | |
| 20260504173517 | 54 | 191 | 0.9 | 3.5 | 0.00 | 0.00 | 0.00 | 94 | |
| 20260504172515 | 53 | 273 | 0.0 | 0.9 | 0.00 | 0.00 | 0.00 | 95 | |
| 20260504171515 | 54 | 232 | 0.0 | 2.6 | 0.00 | 0.00 | 0.00 | 95 | |
| 20260504170515 | 54 | 223 | 0.0 | 3.5 | 0.00 | 0.00 | 0.00 | 95 |